Vertical_Velocity
1 1 1 0 -1 -1 -1 -0 0 1 1 0 1 1 1 1 1 1 1 0 -0 -0 -0 0 0 -0 -0 -1 -1 -1 -0 -0 -0 -0 -0 0 0 -0 -0 -0 -1 -1 -1 -0 0 0 1 1 1 0 0 0 -0 -0 1 1 -0 -1 -0 -0 -1 -1 -1 -0 0 0 0 0 0 0 1 0 0 0 -0 -0 -0 0 -0 -1 -1 -1 -0 -0 -0 -0 -1 -0 -0 -0 -0 -0 -0 -0 -1 -0 -0 -0 -1 -0 -0 -0 0
2 2 1 0 -1 -1 -1 0 0 0 0 0 0 1 1 1 1 0 0 -0 -0 -0 -0 -0 -0 -0 -1 -1 -1 -0 -0 -0 -0 -0 -0 0 0 -0 -0 -0 -1 -1 -1 -0 -0 0 0 0 0 0 0 0 0 0 1 -0 -1 -1 -0 -0 -1 -1 -1 -0 -0 0 0 0 0 0 1 0 0 0 -0 -0 -0 -0 -0 -1 -1 -1 -1 -0 -0 -0 -1 -0 -0 -0 -0 -0 -0 -1 -1 -0 -1 -1 -0 -0 -0 -0 -0
2 2 1 0 -1 -1 -0 0 1 0 0 0 0 1 1 1 0 0 0 -0 -0 -1 -0 -1 -1 -1 -1 -1 -0 -0 -0 -0 -0 -0 0 0 0 -0 -0 -0 -1 -1 -0 -0 0 0 0 0 0 0 0 0 0 0 1 -0 -1 -1 -0 -1 -1 -1 -1 -0 -0 0 0 0 0 0 0 0 0 0 0 -0 -0 -0 0 -0 -0 -1 -1 -0 -0 -0 -0 -0 -0 0 0 -0 -0 -1 -1 -1 -0 -0 0 -0 -0 -0 -0
2 2 1 0 -0 -0 0 0 0 0 0 0 0 1 1 1 0 0 0 -0 -0 -1 -1 -1 -1 -1 -1 -1 -0 -0 0 0 0 0 -0 -0 -0 0 0 0 -0 -0 -0 -0 0 0 1 0 0 0 0 0 0 -0 -0 -1 -1 -1 -1 -1 -1 -1 -1 -0 -0 -0 0 0 0 0 0 0 0 0 -0 -1 -0 0 0 0 0 -0 -0 -0 -0 -0 -0 -0 -0 -0 -0 -0 -1 -1 -1 -1 -1 -0 -0 -0 -1 -1 -1
1 1 1 0 0 0 0 0 0 0 0 0 0 1 1 1 0 0 0 0 -0 -0 -1 -1 -1 -1 -1 -1 -1 -0 0 0 0 0 0 -0 0 0 0 0 0 0 0 0 0 0 0 0 0 0 1 1 1 0 -1 -1 -1 -1 -1 -1 -1 -1 -0 -0 -1 -1 -0 0 0 0 0 -0 -0 -1 -0 -1 -0 -0 0 0 0 0 0 0 0 0 0 -0 -0 -0 -1 -1 -1 -1 -1 -2 -1 -1 -1 -1 -1 -1 -1
1 1 1 1 0 0 0 0 0 0 0 0 0 1 1 1 0 0 0 0 -0 -0 -1 -1 -1 -1 -1 -1 -1 -0 -0 0 1 1 1 0 0 0 0 0 0 0 0 -0 0 0 -0 -0 -0 -0 0 -1 -1 -1 -2 -2 -1 -2 -2 -1 -1 -0 -0 -0 -0 -0 -0 -0 -0 -0 -0 -0 -0 -0 -1 -1 -1 -0 -0 -0 0 0 0 0 0 0 -0 -0 -0 -0 -1 -1 -1 -2 -1 -1 -1 -1 -1 -1 -1 -1 -1
1 1 0 0 1 0 0 0 -0 -0 0 0 0 1 1 1 0 0 0 0 0 -0 -0 -1 -1 -1 -2 -1 -1 -1 -1 -0 0 1 1 1 1 0 0 0 0 -0 -0 -0 -0 -0 -1 -1 -1 -1 -1 -1 -1 -2 -2 -2 -2 -1 -1 -2 -1 -0 -0 -0 -0 -0 -0 -0 -0 -1 -1 -1 -0 -0 -0 -0 -0 -0 -1 -1 -0 -0 0 -0 -0 -0 -0 -0 -0 -0 -1 -0 -0 -0 -0 -0 -1 -1 -1 -1 -1 -1 -1
1 1 1 1 1 0 0 -0 -0 -0 0 0 1 1 1 1 1 0 0 0 0 0 -0 -0 -1 -1 -1 -1 -1 -1 -1 -1 -0 0 1 1 1 1 0 0 0 -0 -0 -0 -0 -1 -1 -1 -1 -1 -1 -1 -2 -2 -2 -2 -1 -1 -1 -1 -1 -1 -0 -0 -0 -0 -0 -0 -0 -0 -1 -0 -0 -1 -1 -0 -0 -0 -0 -0 -0 -0 0 -0 -0 -0 -0 -0 -0 -0 -0 -0 -0 -0 -0 -0 -0 -0 -0 -0 -1 -1 -1
1 1 1 1 1 0 0 -0 -0 0 0 0 1 1 2 1 1 0 0 0 0 0 0 0 -0 -0 -1 -1 -1 -1 -1 -1 -0 0 0 0 0 0 0 -0 -0 -0 -0 -0 -0 -1 -1 -1 -1 -1 -1 -1 -2 -2 -2 -2 -1 -1 -1 -0 -1 -2 -2 -1 -1 -1 -1 -1 -1 -1 -0 -0 -1 -1 -1 -0 -0 -0 -0 -0 -0 -0 0 0 0 -0 -0 -0 -0 -0 -0 -0 -0 -0 -0 -0 -0 -0 -0 -1 -1 -1 -1
1 1 1 1 1 1 0 0 0 0 0 1 1 2 2 1 1 1 1 0 0 1 1 1 1 1 0 -0 -0 -1 -1 -0 -0 -0 -0 -0 -0 -0 -0 -0 -0 -0 -0 -1 -1 -1 -1 -1 -1 -1 -1 -1 -1 -1 -2 -1 -1 -1 -1 -1 -0 -1 -3 -2 -1 -1 -1 -1 -1 -0 -0 -0 -1 -1 -1 -1 -0 -0 -0 -0 -0 -0 -0 -0 -0 -0 -0 -0 -1 -1 -1 -1 -1 -1 -1 -1 -0 -0 -1 -1 -0 -0 -1
1 1 2 2 1 1 1 0 0 0 1 2 2 3 2 2 1 1 1 0 0 1 1 1 1 1 1 1 0 0 -0 -0 -0 -0 -0 -0 -0 -0 -0 -1 -1 -1 -1 -1 -1 -1 -1 -1 -2 -2 -2 -2 -2 -1 -1 -1 -0 -0 -1 -1 -1 -1 -1 -1 -1 -1 -1 -0 -0 -1 -1 -0 -0 -1 -1 -1 -1 -1 -0 -0 -0 -0 -0 -0 -0 -0 -0 -1 -1 -1 -1 -1 -1 -1 -1 -1 -1 -0 -0 -0 -0 -0 -1
2 2 2 2 2 1 1 0 1 1 2 3 3 2 2 1 1 1 0 0 0 1 1 1 1 2 2 2 1 1 0 -0 -0 -0 -0 -0 -0 -0 -0 -1 -1 -1 -1 -1 -1 -1 -1 -2 -2 -2 -2 -2 -2 -1 -1 -1 -0 -0 -1 -1 -1 -1 -1 -1 -1 -0 -1 -0 -0 -1 -1 -1 -0 -0 -0 -0 -0 -0 -0 -0 -0 -0 -0 -0 -0 -0 -0 -0 -1 -1 -1 -1 -1 -1 -1 -1 -1 -1 -1 -0 -0 -1 -1
2 2 2 2 1 1 0 1 2 3 3 3 2 2 1 1 1 0 0 0 0 1 1 1 1 1 2 2 2 1 1 0 0 -0 -0 -0 -0 -0 -0 -0 -1 -1 -1 -1 -1 -1 -1 -1 -2 -2 -2 -2 -2 -1 -1 -1 -1 -1 -1 -1 -1 -0 -0 -0 -0 -1 -1 -0 -0 -0 -0 -0 -0 -0 0 -0 -0 -0 -0 -0 -0 -0 -0 -0 -0 -0 -0 -0 -1 -1 -1 -1 -1 -1 -1 -1 -1 -1 -1 -1 -1 -0 -1
2 2 2 1 1 1 1 2 3 3 3 2 1 1 1 0 0 -0 -0 -0 0 0 1 1 1 1 1 1 1 1 1 1 0 0 -0 -0 -0 -0 -0 -0 -0 -0 -1 -1 -1 -1 -1 -1 -1 -2 -2 -2 -2 -1 -1 -2 -2 -1 -1 -1 -1 -1 -1 -0 0 0 -0 -0 -0 -0 -0 -0 -0 -0 0 -0 -0 -0 -0 -0 -0 -0 -0 -0 -0 -0 -0 -0 -0 -1 -1 -1 -1 -2 -1 -1 -1 -1 -1 -1 -1 -1 -1
2 1 1 1 1 2 3 4 4 3 1 1 1 0 0 -0 -0 -1 -1 -0 -0 -0 0 0 0 1 1 1 1 1 1 1 0 0 0 -0 -0 -0 -0 -0 -0 -0 -0 -0 -0 -1 -1 -1 -1 -1 -1 -1 -1 -1 -2 -2 -2 -2 -2 -1 -1 -1 -1 -1 -0 0 -0 -1 -1 -0 -0 -0 -0 0 0 -0 -0 -0 -0 -0 0 -0 -0 -0 -0 -0 -1 -0 -0 -0 -1 -1 -1 -2 -1 -1 -1 -1 -1 -1 -1 -1 -1
1 1 1 2 3 4 5 4 3 1 0 0 0 0 -0 -1 -1 -1 -1 -1 -1 -1 -0 0 0 0 0 0 0 0 1 1 0 0 -0 -0 -0 -0 -0 -0 -0 -0 -0 -0 -0 -0 -1 -1 -1 -1 -1 -1 -1 -1 -1 -1 -1 -1 -2 -1 -1 -1 -1 -0 0 1 -0 -1 -1 -1 -1 -0 -0 -0 0 -0 -0 -0 -0 -0 0 0 0 0 -0 -1 -1 -1 -1 -1 -1 -1 -1 -1 -1 -1 -1 -1 -1 -1 -1 -1 -1
1 2 3 4 4 4 4 2 1 0 0 0 0 -0 -1 -1 -1 -2 -2 -1 -1 -1 -0 -0 -0 -0 -0 -0 -0 -0 0 0 0 0 0 0 0 0 -0 -0 -0 -0 -0 -0 -0 -0 -0 -0 -0 -0 -0 -1 -1 -0 -1 -1 -1 -1 -1 -2 -2 -1 -1 -0 0 1 0 0 -1 -1 -1 -1 -1 -1 -0 0 -0 -0 -1 -0 -0 0 0 -0 -0 -1 -1 -1 -1 -1 -1 -1 -1 -1 -1 -1 -1 -1 -1 -1 -1 -1 -1
3 3 4 4 3 3 1 1 0 0 0 0 -0 -0 -1 -1 -1 -2 -2 -2 -1 -1 -0 -0 -0 -0 -0 -0 -0 -0 0 0 0 0 0 0 0 0 0 0 0 0 0 -0 -0 -0 -0 -0 -0 -0 -0 -0 0 0 0 -0 -0 -1 -1 -2 -2 -1 -1 -1 -1 -0 -0 2 1 -1 -1 -1 -1 -2 -2 -1 -0 0 -0 -1 -1 -1 -0 -0 -1 -1 -2 -2 -2 -2 -1 -1 -1 -1 -1 -1 -1 -1 -0 -0 -0 -1 -1
3 3 3 2 2 1 0 0 0 0 0 -0 -0 -0 -1 -1 -1 -1 -1 -1 -1 -1 -0 -0 -0 -0 0 0 0 0 0 0 0 1 1 1 1 0 0 0 0 0 0 0 0 0 0 0 0 0 0 0 0 0 0 0 0 -0 -1 -1 -1 -1 -1 -1 -1 -0 -0 2 1 0 -1 -1 -1 -1 -2 -2 -1 0 0 -1 -1 -1 -1 -1 -1 -2 -2 -2 -2 -2 -1 -1 -1 -0 -0 -0 -0 -0 -0 -0 -0 -0 -1
2 2 1 1 1 0 -0 0 0 0 0 0 -0 -0 -0 -1 -1 -1 -1 -0 -0 -0 -1 -1 -1 -0 0 1 1 1 1 1 1 1 1 1 1 1 1 1 1 1 1 0 0 0 0 0 0 0 0 0 0 0 1 1 0 0 -0 -1 -1 -1 -1 -0 -0 -0 -0 0 0 0 -1 -1 -0 0 2 0 -1 -1 0 -1 -1 -2 -1 -1 -2 -2 -2 -1 -1 -1 -1 -1 -1 -1 -0 -0 -0 -1 -0 -0 -0 -0 -0
1 1 1 0 0 -0 0 -0 -0 0 0 0 0 0 0 0 0 0 0 0 -0 -1 -1 -1 -1 -1 -0 0 1 1 1 1 1 1 1 1 1 1 1 1 1 1 1 1 1 1 1 1 0 0 0 0 0 0 0 0 0 0 0 -0 -0 -0 0 0 -0 -0 -0 -0 -0 0 -1 -0 -1 -0 2 2 -1 -2 -0 -0 -1 -1 -1 -1 -1 -2 -2 -2 -1 -1 -1 -1 -1 -1 -1 -1 -1 -1 -1 -1 -1 -1 -1
1 1 1 0 0 0 0 0 0 0 0 0 1 1 1 1 1 1 1 1 0 -0 -1 -1 -1 -1 -1 -1 -0 0 0 0 1 1 1 1 1 1 1 1 1 1 1 1 1 1 1 1 1 0 -0 -0 -0 -0 0 0 0 0 0 -0 0 0 1 1 0 0 -0 -0 -0 -0 -0 -0 -1 -1 1 -1 -2 -3 -1 -0 0 0 -0 -1 -1 -1 -1 -2 -2 -2 -2 -1 -1 -1 -1 -1 -1 -1 -1 -1 -1 -1 -1
1 2 2 1 1 1 1 1 1 1 0 0 0 0 1 1 1 1 1 1 0 0 -0 -0 -1 -1 -1 -1 -1 -0 -0 0 0 0 0 0 1 1 1 1 1 1 1 1 1 1 1 1 1 0 -0 -0 -0 -0 -0 -0 -0 0 0 -0 -0 0 1 1 1 0 0 -0 -0 -0 -1 -1 -1 -0 2 0 -1 -2 -1 -1 -0 1 1 0 -0 -1 -1 -1 -2 -2 -2 -2 -1 -1 -1 -1 -1 -1 -1 -1 -1 -1 -1
1 1 2 2 1 1 1 1 0 0 0 0 0 0 0 1 1 1 1 1 1 1 0 0 0 0 -0 -0 -1 -1 -0 -0 -0 -0 0 -0 -0 0 0 1 1 1 1 1 0 0 0 0 1 0 -0 -0 -0 -0 -0 -1 -0 -0 -0 -0 -0 -0 0 0 0 0 -0 -0 -0 -0 -0 -1 -1 -1 1 1 0 -0 -0 -1 -1 -0 1 1 1 1 0 -1 -1 -2 -2 -2 -2 -1 -1 -1 -1 -1 -1 -1 -1 -1 -1
1 1 1 1 1 1 1 0 0 0 0 0 0 0 0 1 1 1 1 1 1 1 1 1 1 1 1 0 0 -0 -0 -0 0 0 0 -0 -0 -0 -0 0 0 1 0 0 0 0 0 0 0 0 0 -0 -0 -0 -0 -1 -0 -0 -0 -1 -1 -0 -0 -0 -0 -0 -0 -0 -0 -0 -0 -1 -1 -1 -0 1 1 0 -0 -1 -1 -1 -1 -0 -0 0 1 0 -1 -1 -1 -2 -2 -2 -1 -1 -1 -1 -1 -1 -1 -1 -1
1 1 1 1 1 1 1 0 0 0 0 0 0 1 1 1 1 1 1 1 1 1 1 1 1 1 1 1 1 1 0 0 0 0 0 0 0 0 0 0 0 0 0 0 0 0 0 0 0 1 0 0 -0 -0 -0 -1 -1 -0 -0 -1 -1 -0 -0 -0 -0 -0 -1 -1 -1 -0 -0 -0 -1 -1 -1 0 1 1 -0 -0 -1 -2 -2 -2 -2 -2 -2 -0 -1 -1 -0 -0 -1 -2 -2 -1 -1 -1 -2 -2 -2 -2 -1
1 1 1 1 1 1 1 0 0 0 0 1 1 1 1 2 1 1 1 1 1 1 1 1 1 1 1 1 1 1 1 1 1 1 0 0 0 0 1 0 0 0 0 0 0 0 0 0 0 0 0 0 -0 -0 -0 -1 -1 -1 -1 -1 -0 -0 -0 -0 -0 -0 -1 -1 -1 -1 -0 -0 -0 -1 -1 -1 -0 0 0 -0 -1 -2 -3 -2 -2 -3 -3 -3 -2 -2 -1 0 -0 -1 -2 -2 -1 -1 -2 -2 -2 -2 -2
0 0 1 1 1 1 0 0 0 1 1 1 2 2 2 2 2 2 1 1 1 1 1 1 1 1 1 1 1 1 1 1 1 1 1 1 1 1 1 1 0 0 0 0 0 0 0 0 0 0 0 0 0 -0 -0 -1 -1 -1 -1 -1 -0 0 0 0 -0 -0 -0 -1 -1 -1 -1 -1 -0 -0 -0 -1 -1 -0 -0 -0 -1 -1 -1 -1 -2 -2 -2 -2 -2 -2 -3 -1 -1 -1 -2 -1 -1 -2 -2 -0 0 -0 -2
0 0 1 1 0 0 0 0 0 1 1 2 2 2 2 2 2 2 2 2 2 1 1 1 1 1 1 1 1 1 1 1 1 1 1 1 1 1 1 1 1 0 0 0 0 0 0 0 0 0 0 0 -0 -0 -0 -0 -1 -1 -1 -1 -0 0 0 0 0 -0 -0 -0 -1 -1 -1 -1 -0 0 0 0 -0 -1 -1 -1 -1 -1 0 1 1 1 0 1 -0 -1 -3 -2 -2 -3 -3 1 1 -1 -3 -1 1 3 1
0 0 0 0 0 0 -0 0 0 1 1 2 2 2 2 2 2 2 2 2 2 2 2 2 1 1 1 1 1 1 1 1 1 1 1 1 1 1 1 1 1 1 1 0 0 0 0 0 0 -0 -0 -0 -0 -0 -0 -0 -1 -1 -1 -1 -1 -0 0 0 0 -0 -0 -0 -0 -0 -1 -1 -0 0 1 1 0 -0 -1 -1 -2 -2 -0 2 4 5 3 1 -0 -1 -2 -2 -3 -4 -4 3 4 0 -4 -5 -3 1 3
0 0 0 0 0 0 0 1 1 1 1 2 2 1 1 1 1 2 2 2 2 2 2 2 1 1 1 1 1 1 1 1 1 1 1 1 1 1 1 1 1 1 1 0 0 0 0 -0 -0 -0 -0 -0 -0 -0 -0 -0 -0 -1 -1 -1 -1 -1 -0 -0 -0 0 -0 -0 -0 -0 -1 -1 -1 -0 0 1 1 0 -0 -0 -1 -1 -2 -1 1 3 2 0 -0 -0 1 -2 -3 -4 -4 2 2 -0 -3 -3 -4 -4 -2
1 0 0 0 1 1 1 1 2 2 2 1 1 1 1 1 1 1 2 2 2 2 1 1 1 1 1 1 1 1 1 1 1 1 1 1 1 1 1 1 1 1 1 0 0 0 0 -0 -0 -0 -0 -0 -0 -0 -0 -0 -0 -0 -1 -1 -1 -1 -1 -1 -0 -0 -0 -0 0 0 -0 -1 -1 -1 -0 0 1 1 1 0 -0 -1 -2 -3 -2 -0 1 -0 0 1 3 0 -2 -3 -2 -2 -2 -3 -2 -1 -1 -1 -3
1 0 0 0 1 1 2 2 2 2 2 1 1 1 1 1 1 1 2 1 1 1 1 1 1 1 1 0 0 1 1 1 1 1 1 1 1 1 1 1 1 1 0 0 0 0 0 0 -0 -0 -0 -1 -1 -1 -0 -0 -0 -0 -1 -1 -1 -1 -1 -1 -1 -0 -0 -0 0 0 -0 -1 -1 -1 -1 -1 -0 0 1 1 -0 -1 -1 -3 -3 -3 -1 1 2 2 1 -0 -1 -2 -1 -1 -1 -1 -1 -1 -1 -1 -1
0 0 0 1 1 2 2 2 2 2 1 1 1 1 1 1 1 1 1 1 1 1 1 1 1 1 1 1 1 1 1 1 1 1 1 1 1 1 1 1 1 1 0 0 0 0 0 0 0 0 -0 -0 -0 -1 -1 -1 -1 -1 -0 -0 -0 -0 -0 -0 -0 -0 -0 -0 -0 -0 -0 -0 -1 -1 -1 -1 -1 -1 -0 0 0 -0 -0 -1 -3 -3 -2 0 1 1 -0 -1 -1 -1 -0 -0 -1 -1 -1 -1 -1 -1 -1
1 1 1 1 1 1 2 2 2 1 1 1 1 1 1 1 1 1 1 1 1 1 1 1 1 1 1 1 1 1 1 1 1 1 1 1 1 1 1 1 0 0 0 -0 -0 -0 0 0 0 0 0 -0 -0 -0 -1 -1 -1 -1 -0 -0 -0 0 0 0 0 0 -0 -0 -0 -0 -0 -1 -1 -1 -1 -1 -1 -1 -1 -1 -1 0 0 -0 -2 -3 -3 -1 0 1 0 -1 -1 -0 -0 -0 -1 -1 -1 -1 -1 -1 -1
1 1 1 1 1 1 1 1 1 1 1 1 1 1 1 1 1 1 1 1 1 1 1 1 1 1 1 1 1 1 1 1 1 1 1 0 0 0 0 0 0 0 -0 -0 -0 -0 0 0 0 0 0 0 0 -0 -0 -0 -0 -0 -0 -0 -0 0 0 0 0 0 0 -0 -0 -0 -1 -1 -1 -1 -0 -1 -1 -1 -1 -1 -1 -0 0 0 -0 -1 -2 -2 -1 0 0 -0 -0 -0 -0 -1 -1 -1 -1 -1 -1 -1 -1
0 0 0 0 0 1 1 1 1 1 1 1 1 1 1 1 1 1 1 1 1 1 1 1 1 1 1 1 1 1 1 1 1 0 0 0 -0 -0 0 0 0 0 -0 -0 -0 0 0 0 0 1 1 0 0 0 0 0 -0 -0 -0 -0 -0 -0 0 0 0 0 0 0 -0 -0 -1 -1 -1 -1 -1 -1 -1 -1 -1 -1 -0 -0 0 1 1 0 -1 -2 -1 -1 -0 -0 -0 -0 -1 -1 -1 -1 -1 -2 -2 -1 -2
0 0 0 1 1 1 0 0 1 1 1 1 1 1 1 1 1 1 1 1 1 1 1 1 1 1 1 1 1 1 1 1 1 0 0 -0 -0 -0 -0 -0 0 0 0 0 0 0 1 1 1 1 1 1 1 0 0 0 0 -0 -0 -0 -1 -0 -0 -0 0 0 0 -0 -0 -0 -1 -1 -1 -1 -1 -1 -1 -1 -1 -0 -0 -0 0 0 1 1 0 -1 -1 -1 -1 -1 -1 -1 -1 -1 -1 -1 -2 -2 -2 -2 -2
0 0 1 1 1 1 0 1 1 1 1 1 1 1 1 1 1 1 1 1 1 1 1 1 1 1 1 1 2 1 1 1 1 1 0 -0 -0 -0 -0 -0 0 0 0 1 1 1 1 1 1 1 1 1 1 1 0 0 0 -0 -0 -0 -1 -1 -1 -0 -0 -0 0 -0 -0 -0 -1 -1 -1 -1 -1 -1 -1 -1 -0 -0 -0 -1 -0 -0 0 1 1 1 0 -1 -1 -1 -1 -1 -1 -1 -1 -1 -2 -2 -3 -2 -2
1 1 1 1 1 1 1 1 1 1 1 1 1 1 1 1 1 1 1 1 1 1 1 1 1 1 1 1 2 2 1 1 1 1 1 0 0 -0 -0 -0 0 0 0 1 1 1 1 1 1 1 1 1 1 1 0 0 0 0 -0 -0 -1 -1 -1 -1 -0 -0 -0 -0 -0 -1 -1 -1 -0 -0 -0 -0 -0 -0 -0 -0 -1 -1 -1 -0 0 0 0 1 1 0 -0 -1 -1 -1 -1 -1 -1 -1 -1 -2 -2 -2 -1
1 1 1 2 2 2 2 1 1 1 1 1 1 1 1 1 1 1 1 1 1 1 1 1 1 1 1 2 2 2 1 1 1 1 1 1 1 0 -0 -0 0 0 1 1 1 1 1 1 1 1 0 0 0 0 0 0 0 0 -0 -0 -0 -0 -0 -1 -0 -0 -0 -0 -0 -0 -1 -1 -0 0 0 0 0 0 -0 -0 -0 -1 -1 -0 0 0 0 0 0 0 0 -0 -1 -1 -1 -1 -1 -0 -0 -0 -0 -0 0
1 1 1 2 2 2 2 1 1 1 1 2 2 2 1 1 1 1 1 2 1 1 1 1 1 1 1 2 2 1 1 1 2 2 2 2 1 0 -0 0 0 0 0 1 1 1 1 1 0 0 -0 -0 -0 -0 -0 -0 -0 -0 -0 -0 -0 -0 -0 -0 -0 -0 -0 -0 -0 -0 -0 -1 -0 0 0 0 0 0 0 0 0 -0 -0 0 0 0 0 -0 -0 -0 0 0 -0 -1 -1 -1 -1 -0 -0 -0 0 0 0
2 2 2 2 3 3 2 2 2 2 2 2 2 2 2 1 1 1 1 1 1 1 1 1 1 1 2 2 2 2 1 1 2 2 2 2 1 1 0 0 0 0 0 0 0 0 0 0 0 -0 -0 -0 -0 -1 -1 -0 -0 -1 -0 -0 -0 0 0 0 0 -0 -0 -0 -0 -0 -0 -0 -0 -0 0 0 0 0 0 0 0 0 0 0 0 0 -0 -0 -1 -0 0 0 -0 -0 -0 -0 -0 -0 -0 -0 -0 -0 -0
2 2 2 3 3 3 2 2 2 2 2 2 2 2 2 2 2 1 1 1 1 1 1 1 1 1 2 2 2 2 1 2 2 2 2 2 1 1 0 0 0 0 0 0 0 0 0 -0 -0 -0 -0 -1 -1 -1 -1 -1 -1 -1 -1 -1 -0 0 0 0 0 0 0 -0 -0 -0 -0 -0 -0 0 -0 -0 -0 -0 -0 0 0 0 0 0 0 -0 -0 -1 -1 -1 -0 -0 -0 -0 -0 -0 -0 -0 -0 -0 -0 -0 -0
3 3 3 3 3 2 2 2 2 2 1 2 2 2 2 2 2 1 1 1 1 1 1 1 1 1 1 2 2 2 2 2 2 2 2 1 1 0 -0 0 0 0 0 0 -0 -0 0 -0 -0 -0 -0 -0 -0 -0 -1 -1 -1 -1 -1 -1 -0 0 1 1 1 1 1 0 -0 -0 -0 0 0 0 0 0 -0 -0 -0 -0 -0 0 0 0 0 -0 -0 -1 -1 -1 -1 -0 -0 -0 -0 -0 -0 -0 -0 -0 -0 -0 -0
3 3 3 3 3 2 1 1 1 1 1 1 1 2 2 2 2 1 1 1 1 1 1 1 1 1 1 1 2 2 2 2 2 2 1 1 0 0 -0 -0 0 0 0 0 -0 0 0 0 0 0 -0 0 0 0 0 -0 -0 -0 -1 -1 -0 0 0 1 1 1 1 1 0 -0 -0 0 0 1 1 1 0 -0 -1 -1 -1 -0 -0 -0 -0 -0 -0 -1 -1 -1 -1 -0 -0 -0 -0 -0 -0 -0 -0 -0 -0 -0 -1
3 3 3 3 3 2 2 1 1 0 0 0 1 1 1 1 2 2 1 1 1 1 1 1 1 1 1 1 2 2 3 3 2 2 1 1 0 -0 -0 0 0 0 0 0 0 0 0 0 0 -0 -0 0 0 0 0 0 -0 -0 -0 -1 -0 -0 -0 0 1 1 1 1 0 0 -0 0 0 0 1 1 1 0 -0 -1 -1 -1 -1 -1 -0 -0 -0 -0 -1 -1 -0 -0 -0 -0 -0 -0 -0 -0 -0 -0 -0 -1 -1
3 3 3 3 3 3 2 1 1 0 -1 -1 -0 0 1 2 2 2 2 2 1 1 2 2 1 1 1 1 1 2 2 2 2 1 1 1 0 -0 -1 0 1 1 1 1 0 0 0 0 -0 -0 -0 0 0 0 0 -0 -0 -1 -1 -1 -1 -1 -0 0 0 1 1 1 1 0 0 0 0 0 1 1 1 1 1 0 -0 -1 -2 -1 -1 -1 -1 -1 -1 -1 -1 -0 -0 -0 -0 -0 -0 -0 -0 -1 -1 -1 -1
3 3 3 3 3 2 1 1 1 0 -1 -1 -1 -1 1 2 2 2 3 3 3 3 3 2 2 2 1 1 1 1 2 2 2 2 1 1 0 0 1 1 2 2 1 1 0 0 0 -0 -0 -0 -0 0 -0 -0 -1 -1 -1 -1 -1 -1 -1 -1 -0 0 1 1 1 1 1 1 1 0 0 0 1 1 1 1 1 1 1 -0 -1 -2 -2 -1 -1 -1 -1 -1 -1 -1 -1 -1 -1 -1 -1 -1 -1 -1 -1 -1 -2
3 3 3 3 2 2 1 1 1 0 -1 -1 -1 -1 0 1 1 2 2 2 3 3 3 2 2 2 2 1 1 1 2 2 2 2 2 0 0 1 2 2 2 1 1 0 0 0 -0 -0 -1 -1 -1 -1 -1 -1 -2 -2 -2 -2 -2 -1 -1 -0 -0 0 0 0 0 0 0 0 1 1 1 1 1 1 1 1 2 2 2 1 -0 -1 -2 -2 -2 -1 -1 -1 -1 -1 -1 -1 -1 -1 -1 -1 -1 -1 -1 -2 -2
2 2 2 3 2 2 2 2 1 0 -1 -1 -1 -1 -1 -1 -1 -0 0 1 2 2 2 2 2 2 2 1 1 1 1 2 2 2 1 -0 -0 0 1 1 1 2 1 0 -0 -0 -1 -1 -1 -1 -1 -1 -2 -2 -2 -3 -3 -3 -2 -2 -2 -1 -1 -1 -1 -1 -0 -0 -0 -0 0 0 1 1 1 0 0 0 1 1 2 2 1 -1 -2 -2 -2 -2 -1 -1 -1 -1 -1 -1 -1 -1 -1 -1 -1 -1 -1 -2 -2
2 3 3 3 2 2 2 2 2 1 0 -0 -1 -1 -0 -0 -1 -1 -1 -0 1 1 2 2 2 2 2 2 2 2 1 1 1 0 -1 -1 -0 1 1 2 3 2 1 1 0 -0 -1 -1 -1 -1 -1 -1 -2 -2 -2 -3 -3 -3 -3 -2 -2 -2 -1 -1 -1 -1 -1 -0 -0 -0 -0 -0 0 1 1 0 -0 -1 -1 0 1 2 1 0 -1 -2 -2 -2 -1 -1 -1 -0 -0 -0 -0 -0 -0 -0 -0 -0 -1 -1 -1
3 3 3 3 2 3 3 3 2 2 2 0 -0 -1 0 -0 -0 -1 -0 -0 0 1 2 2 2 2 2 2 2 2 1 1 0 -0 0 0 1 2 3 3 2 0 -2 1 1 1 -0 -0 -0 -0 -1 -1 -2 -2 -2 -3 -3 -3 -2 -2 -1 -1 -0 -1 -1 -1 -2 -1 -0 0 1 0 0 0 1 1 0 -0 -1 -0 0 1 2 1 0 -1 -2 -2 -1 -1 0 0 0 0 0 0 0 0 0 0 -0 -0 -0
2 2 3 2 2 3 2 2 2 3 2 1 -0 -0 0 -0 -0 -0 0 -0 -0 -0 1 2 2 3 2 2 1 1 1 1 1 0 1 0 1 1 2 1 -1 -2 -2 0 1 0 -1 -0 -0 -0 -0 -1 -2 -2 -2 -3 -3 -3 -2 -1 -0 0 0 0 -0 -1 -2 -3 -2 -1 1 1 1 1 1 1 1 1 0 -0 0 1 2 2 2 0 -2 -2 -2 -1 0 1 1 1 1 0 0 0 0 0 0 0 0
1 2 3 3 2 2 1 1 2 2 2 1 1 0 0 -0 -1 -1 -0 -1 -1 -0 1 2 2 2 2 0 0 1 1 2 1 1 0 0 0 0 -0 -1 -0 1 1 1 -1 -3 -2 -1 -1 -2 -1 -1 -2 -3 -3 -3 -3 -2 -1 0 1 -0 -2 -0 0 -0 -1 -4 -4 -3 -1 1 1 1 2 2 2 1 0 0 0 1 2 2 2 2 0 -1 -2 -1 -0 0 1 1 1 1 1 0 0 0 0 0 0
2 3 3 2 1 0 -0 0 0 1 2 2 1 0 -0 -0 0 0 1 0 0 1 2 2 1 1 1 0 0 1 2 2 2 1 1 0 0 0 1 0 -0 -1 -1 -2 -3 -3 -1 -1 -1 -2 -1 -1 -2 -2 -3 -2 -2 -2 -1 -0 -0 -1 -4 -2 -1 0 -0 -2 -3 -4 -2 -1 0 1 1 2 1 1 -0 0 0 1 1 2 2 2 2 1 -0 -1 -1 -0 1 1 2 2 1 1 0 0 0 0 -0
3 2 2 1 0 -0 -0 -1 -1 -0 1 2 2 1 0 1 1 2 2 1 1 0 1 2 1 1 1 1 1 1 2 2 2 2 1 1 1 1 1 1 -1 -3 -2 -2 -1 -1 -0 -1 -1 0 0 -0 -1 -2 -4 -4 -3 -2 -1 -1 -2 -2 -3 -1 -1 -0 -0 -1 -2 -3 -3 -2 -1 -0 0 1 1 1 -0 -1 -1 -1 0 2 2 2 2 2 1 0 -1 -0 0 1 2 1 1 0 -0 -0 -0 -0 -1
3 2 1 1 0 -0 -1 -1 -1 -1 -0 1 1 2 1 1 1 1 1 0 -0 -0 1 2 2 1 1 2 2 2 2 1 2 2 2 2 2 1 1 0 1 1 0 1 1 0 -1 -1 -1 -1 -2 -3 -4 -4 -3 -4 -4 -3 -2 -1 -1 -1 -0 -0 -0 -1 -0 -0 -1 -2 -3 -2 -2 -1 -0 1 1 1 -0 -1 -1 -1 -0 1 2 2 1 2 1 1 -0 -0 -0 0 1 1 0 0 -0 -1 -1 -1 -1
3 2 1 1 -0 -1 -1 -1 -1 -1 -1 0 1 2 2 1 -0 -0 1 1 1 1 2 2 1 1 2 2 2 2 0 0 1 2 3 3 1 1 1 1 1 1 0 0 0 0 0 0 -1 -2 -1 -2 -3 -4 -1 -2 -3 -3 -3 -1 -0 0 -0 -0 -0 -1 -1 -0 -0 -1 -2 -2 -2 -1 -0 0 1 1 1 0 0 -0 -0 1 2 2 1 1 1 1 0 -0 -0 -0 -0 0 0 0 0 -0 -0 -0 -0
3 3 1 1 0 -0 -0 -0 -0 -1 -1 0 1 1 1 -0 -0 0 1 2 2 2 2 2 2 2 3 2 1 0 -1 -0 1 2 3 2 1 1 1 0 -0 -0 -0 -0 -0 0 1 1 1 0 0 0 -0 -1 -3 -2 -2 -2 -2 -2 -1 -0 -1 -0 -1 -1 -1 -1 -0 -0 -1 -2 -2 -1 -0 0 1 1 1 1 0 0 -0 0 1 1 1 1 1 1 1 0 0 -0 -0 -0 0 1 1 0 0 1 1
4 3 2 1 1 1 2 1 1 0 0 0 0 -0 -0 -0 0 1 2 3 3 3 2 2 3 3 2 2 1 0 -0 -0 0 1 1 1 1 1 2 1 0 -0 0 -0 -0 0 1 1 1 1 0 0 1 1 -2 -4 -4 -3 -2 -1 -0 -0 -1 -1 -1 -1 -1 -1 -0 0 -0 -1 -1 -1 -0 0 1 1 1 1 0 0 0 -0 0 0 1 1 1 1 1 1 0 0 0 -0 -0 0 1 0 1 2 2
Height
1566 1567 1567 1568 1568 1569 1570 1570 1571 1571 1572 1572 1573 1573 1574 1574 1574 1575 1575 1575 1576 1576 1576 1577 1577 1577 1577 1577 1578 1578 1578 1578 1578 1578 1578 1578 1578 1578 1578 1578 1578 1578 1578 1578 1578 1578 1578 1578 1578 1578 1578 1578 1578 1578 1578 1578 1577 1577 1577 1577 1577 1577 1576 1576 1576 1576 1576 1575 1575 1575 1574 1574 1574 1574 1573 1573 1573 1573 1572 1572 1572 1571 1571 1571 1571 1570 1570 1570 1570 1569 1569 1569 1569 1568 1568 1568 1568 1567 1567 1567 1567 1566 1566
1566 1567 1567 1568 1569 1569 1570 1570 1571 1572 1572 1573 1573 1574 1574 1574 1575 1575 1575 1576 1576 1576 1577 1577 1577 1578 1578 1578 1578 1578 1578 1578 1578 1578 1578 1578 1578 1578 1578 1578 1578 1578 1578 1578 1578 1579 1579 1579 1579 1579 1579 1579 1579 1578 1578 1578 1578 1578 1577 1577 1577 1577 1577 1577 1576 1576 1576 1576 1575 1575 1575 1575 1574 1574 1574 1573 1573 1573 1573 1572 1572 1572 1572 1571 1571 1571 1571 1570 1570 1570 1570 1569 1569 1569 1568 1568 1568 1568 1568 1567 1567 1567 1567
1567 1567 1568 1568 1569 1570 1570 1571 1571 1572 1572 1573 1573 1574 1574 1575 1575 1576 1576 1576 1577 1577 1577 1578 1578 1578 1578 1578 1578 1578 1579 1579 1579 1579 1579 1579 1579 1579 1579 1579 1579 1579 1579 1579 1579 1579 1579 1579 1579 1579 1579 1579 1579 1579 1578 1578 1578 1578 1578 1578 1577 1577 1577 1577 1577 1576 1576 1576 1576 1576 1575 1575 1575 1574 1574 1574 1574 1573 1573 1573 1573 1572 1572 1572 1571 1571 1571 1571 1570 1570 1570 1570 1569 1569 1569 1569 1568 1568 1568 1568 1568 1567 1567
1567 1568 1568 1569 1569 1570 1570 1571 1572 1572 1573 1573 1574 1574 1575 1575 1576 1576 1576 1577 1577 1577 1578 1578 1578 1578 1578 1578 1579 1579 1579 1579 1579 1580 1580 1580 1580 1580 1579 1580 1580 1580 1580 1580 1580 1580 1580 1580 1580 1580 1580 1579 1579 1579 1578 1578 1578 1578 1578 1578 1578 1578 1577 1577 1577 1577 1576 1576 1576 1576 1576 1575 1575 1575 1574 1574 1574 1574 1573 1573 1573 1573 1572 1572 1572 1572 1571 1571 1571 1571 1570 1570 1570 1569 1569 1569 1569 1569 1568 1568 1568 1568 1567
1568 1568 1569 1569 1570 1570 1571 1571 1572 1573 1573 1573 1574 1574 1575 1575 1576 1576 1577 1577 1578 1578 1578 1578 1578 1579 1579 1579 1579 1579 1580 1580 1580 1580 1580 1580 1580 1580 1580 1580 1580 1580 1580 1580 1580 1580 1580 1580 1580 1580 1580 1580 1579 1579 1578 1578 1578 1578 1578 1578 1578 1578 1578 1578 1577 1577 1577 1576 1576 1576 1576 1575 1575 1575 1575 1574 1574 1574 1574 1573 1573 1573 1573 1573 1572 1572 1572 1571 1571 1571 1571 1570 1570 1570 1569 1569 1569 1569 1569 1568 1568 1568 1568
1568 1568 1569 1569 1570 1570 1571 1572 1572 1573 1573 1574 1574 1575 1575 1576 1576 1577 1577 1578 1578 1578 1578 1579 1579 1579 1579 1579 1580 1580 1580 1580 1580 1580 1581 1581 1581 1581 1581 1580 1580 1580 1580 1581 1581 1580 1580 1580 1580 1580 1580 1580 1579 1579 1579 1579 1578 1578 1578 1578 1578 1578 1578 1578 1577 1577 1577 1577 1576 1576 1576 1576 1575 1575 1575 1575 1574 1574 1574 1574 1573 1573 1573 1573 1573 1573 1572 1572 1572 1571 1571 1571 1570 1570 1570 1570 1569 1569 1569 1569 1568 1568 1568
1568 1569 1569 1570 1570 1571 1571 1572 1573 1573 1573 1574 1574 1575 1575 1576 1577 1577 1577 1578 1578 1578 1579 1579 1579 1579 1580 1580 1580 1580 1580 1580 1581 1581 1581 1581 1581 1581 1581 1581 1581 1581 1581 1581 1581 1581 1581 1581 1581 1580 1580 1580 1580 1579 1579 1579 1579 1579 1579 1579 1578 1578 1578 1578 1578 1577 1577 1577 1576 1576 1576 1576 1576 1575 1575 1575 1575 1574 1574 1574 1574 1574 1573 1573 1573 1573 1573 1572 1572 1572 1571 1571 1571 1571 1570 1570 1570 1570 1569 1569 1568 1568 1568
1568 1569 1569 1570 1571 1571 1572 1572 1573 1573 1574 1574 1575 1575 1576 1576 1577 1577 1578 1578 1578 1579 1579 1579 1580 1580 1580 1580 1580 1580 1581 1581 1581 1581 1581 1581 1581 1581 1581 1581 1581 1581 1581 1581 1581 1581 1581 1581 1581 1581 1581 1580 1580 1580 1580 1579 1579 1579 1579 1579 1579 1578 1578 1578 1578 1578 1577 1577 1577 1576 1576 1576 1576 1576 1575 1575 1575 1575 1575 1574 1574 1574 1574 1573 1573 1573 1573 1573 1572 1572 1572 1572 1571 1571 1571 1570 1570 1570 1569 1569 1569 1568 1568
1568 1569 1570 1570 1571 1572 1572 1573 1573 1573 1574 1574 1575 1575 1576 1576 1577 1577 1578 1578 1578 1579 1579 1580 1580 1580 1580 1580 1581 1581 1581 1581 1581 1581 1581 1582 1582 1582 1582 1582 1582 1581 1581 1581 1581 1581 1581 1581 1581 1581 1581 1581 1581 1580 1580 1580 1580 1580 1579 1579 1579 1579 1578 1578 1578 1578 1577 1577 1577 1577 1577 1576 1576 1576 1576 1575 1575 1575 1575 1575 1575 1574 1574 1574 1574 1573 1573 1573 1573 1572 1572 1572 1572 1571 1571 1571 1570 1570 1570 1569 1569 1569 1568
1568 1569 1570 1571 1571 1572 1572 1573 1573 1573 1574 1574 1575 1575 1576 1577 1577 1578 1578 1578 1579 1579 1579 1580 1580 1580 1581 1581 1581 1581 1581 1581 1581 1582 1582 1582 1582 1582 1582 1582 1582 1582 1582 1582 1582 1582 1582 1582 1582 1581 1581 1581 1581 1581 1581 1580 1580 1580 1580 1579 1579 1579 1579 1578 1578 1578 1578 1577 1577 1577 1577 1577 1576 1576 1576 1576 1575 1575 1575 1575 1575 1575 1574 1574 1574 1574 1573 1573 1573 1573 1572 1572 1572 1572 1571 1571 1571 1570 1570 1570 1569 1569 1569
1569 1569 1570 1571 1572 1572 1573 1573 1573 1574 1574 1574 1575 1576 1576 1577 1577 1578 1578 1578 1579 1579 1580 1580 1580 1580 1581 1581 1581 1581 1581 1582 1582 1582 1582 1582 1582 1582 1582 1582 1582 1582 1582 1582 1582 1582 1582 1582 1582 1582 1582 1581 1581 1581 1581 1581 1581 1580 1580 1580 1579 1579 1579 1579 1578 1578 1578 1578 1577 1577 1577 1577 1577 1576 1576 1576 1576 1576 1575 1575 1575 1575 1575 1574 1574 1574 1573 1573 1573 1573 1573 1572 1572 1572 1572 1571 1571 1571 1570 1570 1570 1569 1569
1569 1570 1570 1571 1572 1572 1573 1573 1573 1574 1574 1575 1575 1576 1576 1577 1578 1578 1578 1579 1579 1579 1580 1580 1580 1581 1581 1581 1581 1582 1582 1582 1582 1582 1582 1582 1582 1582 1582 1582 1582 1582 1582 1582 1582 1582 1582 1582 1582 1582 1582 1582 1582 1581 1581 1581 1581 1580 1580 1580 1580 1579 1579 1579 1579 1578 1578 1578 1578 1577 1577 1577 1577 1576 1576 1576 1576 1576 1576 1575 1575 1575 1575 1575 1574 1574 1574 1574 1573 1573 1573 1573 1572 1572 1572 1572 1571 1571 1571 1570 1570 1570 1569
1569 1570 1571 1571 1572 1572 1573 1573 1573 1574 1574 1575 1576 1576 1577 1577 1578 1578 1578 1579 1579 1580 1580 1580 1580 1581 1581 1581 1582 1582 1582 1582 1582 1582 1582 1583 1583 1583 1583 1583 1583 1583 1583 1583 1583 1583 1582 1582 1582 1582 1582 1582 1582 1582 1581 1581 1581 1580 1580 1580 1580 1580 1580 1580 1579 1579 1578 1578 1578 1578 1577 1577 1577 1577 1576 1576 1576 1576 1576 1576 1576 1575 1575 1575 1575 1574 1574 1574 1574 1573 1573 1573 1573 1572 1572 1572 1572 1571 1571 1571 1570 1570 1570
1569 1570 1571 1571 1572 1572 1573 1573 1573 1574 1575 1575 1576 1576 1577 1577 1578 1578 1579 1579 1579 1580 1580 1580 1581 1581 1581 1582 1582 1582 1582 1582 1582 1583 1583 1583 1583 1583 1583 1583 1583 1583 1583 1583 1583 1583 1583 1583 1583 1582 1582 1582 1582 1582 1582 1581 1581 1581 1580 1580 1580 1580 1580 1580 1580 1579 1579 1578 1578 1578 1578 1577 1577 1577 1577 1576 1576 1576 1576 1576 1576 1576 1576 1575 1575 1575 1575 1574 1574 1574 1573 1573 1573 1573 1572 1572 1572 1571 1571 1571 1571 1570 1570
1569 1570 1571 1571 1572 1572 1573 1573 1574 1575 1575 1576 1576 1577 1577 1578 1578 1578 1579 1579 1580 1580 1580 1580 1581 1581 1581 1582 1582 1582 1582 1582 1583 1583 1583 1583 1583 1583 1583 1583 1583 1583 1583 1583 1583 1583 1583 1583 1583 1583 1583 1582 1582 1582 1582 1581 1581 1581 1581 1581 1581 1581 1581 1581 1580 1580 1579 1579 1578 1578 1578 1578 1577 1577 1577 1577 1577 1576 1576 1576 1576 1576 1576 1576 1575 1575 1575 1575 1574 1574 1574 1573 1573 1573 1573 1572 1572 1572 1571 1571 1571 1570 1570
1569 1570 1570 1571 1572 1572 1573 1574 1574 1575 1576 1576 1577 1577 1577 1578 1578 1578 1579 1579 1580 1580 1580 1581 1581 1581 1581 1582 1582 1582 1582 1583 1583 1583 1583 1583 1583 1583 1583 1583 1583 1583 1583 1583 1583 1583 1583 1583 1583 1583 1583 1582 1582 1582 1582 1582 1581 1581 1581 1581 1581 1581 1581 1581 1581 1581 1580 1579 1579 1579 1578 1578 1578 1578 1577 1577 1577 1577 1577 1577 1576 1576 1576 1576 1576 1576 1575 1575 1575 1574 1574 1574 1573 1573 1573 1573 1572 1572 1572 1571 1571 1571 1570
1569 1570 1570 1571 1572 1573 1574 1574 1575 1575 1576 1576 1577 1577 1578 1578 1578 1579 1579 1579 1580 1580 1580 1581 1581 1581 1581 1582 1582 1582 1582 1583 1583 1583 1583 1583 1583 1583 1583 1583 1583 1583 1583 1583 1583 1583 1583 1583 1583 1583 1583 1583 1582 1582 1582 1582 1582 1581 1581 1581 1581 1581 1581 1581 1581 1581 1581 1580 1580 1579 1579 1579 1578 1578 1578 1578 1578 1577 1577 1577 1577 1577 1577 1576 1576 1576 1576 1575 1575 1575 1574 1574 1574 1573 1573 1573 1573 1572 1572 1571 1571 1571 1571
1569 1570 1571 1572 1573 1573 1574 1574 1575 1576 1576 1577 1577 1577 1578 1578 1578 1579 1579 1579 1580 1580 1580 1581 1581 1581 1581 1582 1582 1582 1582 1582 1583 1583 1583 1583 1583 1583 1583 1583 1583 1583 1583 1583 1583 1583 1583 1583 1583 1583 1583 1583 1583 1582 1582 1582 1582 1581 1581 1581 1581 1581 1581 1581 1581 1581 1581 1581 1581 1580 1580 1579 1579 1578 1578 1578 1578 1578 1578 1577 1577 1577 1577 1577 1576 1576 1576 1576 1575 1575 1575 1574 1574 1574 1573 1573 1573 1572 1572 1572 1571 1571 1571
1569 1570 1571 1572 1573 1573 1574 1575 1575 1576 1576 1577 1577 1578 1578 1578 1578 1579 1579 1579 1580 1580 1580 1581 1581 1581 1581 1582 1582 1582 1582 1582 1582 1582 1582 1583 1583 1582 1583 1583 1583 1583 1583 1583 1583 1583 1583 1583 1583 1583 1583 1583 1583 1583 1582 1582 1582 1582 1581 1581 1581 1581 1581 1581 1581 1581 1581 1581 1581 1581 1580 1580 1579 1579 1579 1578 1578 1578 1578 1578 1577 1577 1577 1577 1577 1576 1576 1576 1576 1575 1575 1575 1574 1574 1573 1573 1573 1573 1572 1572 1572 1571 1571
1570 1570 1571 1572 1573 1573 1574 1575 1575 1576 1576 1577 1577 1578 1578 1578 1578 1579 1579 1579 1579 1580 1580 1580 1581 1581 1581 1581 1582 1582 1582 1582 1582 1582 1582 1582 1582 1582 1583 1583 1583 1583 1583 1583 1583 1583 1583 1583 1583 1583 1583 1583 1583 1583 1583 1583 1582 1582 1582 1582 1582 1581 1581 1581 1581 1581 1582 1582 1581 1581 1580 1580 1580 1579 1579 1579 1578 1578 1578 1578 1578 1577 1577 1577 1577 1577 1576 1576 1576 1575 1575 1575 1574 1574 1574 1573 1573 1573 1573 1572 1572 1572 1571
1570 1570 1571 1572 1573 1573 1574 1574 1575 1576 1576 1577 1577 1578 1578 1578 1578 1579 1579 1579 1579 1580 1580 1580 1580 1581 1581 1581 1581 1582 1582 1582 1582 1582 1582 1582 1582 1582 1582 1583 1583 1583 1583 1583 1583 1583 1583 1583 1583 1583 1583 1583 1583 1583 1583 1583 1583 1582 1582 1582 1582 1582 1582 1582 1581 1581 1581 1581 1581 1581 1581 1580 1580 1580 1580 1579 1579 1578 1578 1578 1578 1578 1577 1577 1577 1577 1576 1576 1576 1576 1575 1575 1575 1574 1574 1574 1573 1573 1573 1573 1572 1572 1572
1569 1570 1571 1572 1572 1573 1574 1574 1575 1576 1576 1577 1577 1578 1578 1578 1578 1578 1579 1579 1579 1579 1580 1580 1580 1580 1580 1581 1581 1581 1582 1582 1582 1582 1582 1582 1582 1582 1582 1582 1582 1583 1583 1583 1583 1583 1583 1583 1583 1583 1583 1583 1583 1583 1583 1583 1583 1583 1582 1582 1582 1582 1582 1582 1582 1582 1581 1581 1581 1581 1581 1581 1580 1580 1580 1579 1579 1578 1578 1578 1578 1578 1578 1577 1577 1577 1577 1576 1576 1576 1576 1576 1575 1575 1574 1574 1574 1573 1573 1573 1573 1572 1572
1569 1570 1571 1571 1572 1573 1574 1574 1575 1576 1576 1577 1577 1578 1578 1578 1578 1578 1579 1579 1579 1579 1580 1580 1580 1580 1580 1580 1581 1581 1581 1581 1582 1582 1582 1582 1582 1582 1582 1582 1582 1582 1582 1582 1582 1582 1582 1583 1583 1583 1583 1583 1583 1583 1583 1583 1582 1582 1582 1582 1582 1582 1582 1582 1582 1582 1582 1581 1581 1581 1581 1581 1580 1580 1580 1580 1579 1579 1578 1578 1578 1578 1578 1578 1577 1577 1577 1576 1576 1576 1576 1576 1576 1575 1575 1574 1574 1574 1573 1573 1573 1572 1572
1569 1570 1571 1571 1572 1573 1574 1574 1575 1575 1576 1576 1577 1577 1577 1578 1578 1578 1578 1579 1579 1579 1580 1580 1580 1580 1580 1580 1581 1581 1581 1581 1581 1581 1582 1582 1582 1582 1582 1582 1582 1582 1582 1582 1582 1582 1582 1582 1582 1582 1582 1582 1582 1582 1582 1582 1582 1582 1582 1582 1582 1582 1582 1582 1582 1582 1582 1581 1581 1581 1581 1581 1580 1580 1580 1580 1580 1579 1579 1578 1578 1578 1578 1578 1578 1577 1577 1577 1576 1576 1576 1576 1576 1575 1575 1575 1574 1574 1573 1573 1573 1573 1572
1568 1569 1570 1571 1572 1573 1573 1574 1575 1575 1576 1576 1577 1577 1577 1577 1578 1578 1578 1579 1579 1579 1579 1580 1580 1580 1580 1580 1580 1581 1581 1581 1581 1581 1581 1582 1582 1582 1582 1582 1582 1582 1582 1582 1582 1582 1582 1582 1582 1582 1582 1582 1582 1582 1582 1582 1582 1582 1582 1582 1582 1582 1582 1582 1582 1582 1582 1581 1581 1581 1581 1581 1580 1580 1580 1580 1580 1579 1579 1578 1578 1578 1578 1578 1577 1577 1577 1577 1576 1576 1576 1576 1576 1576 1575 1575 1575 1574 1574 1573 1573 1573 1572
1568 1569 1570 1571 1572 1573 1573 1574 1574 1575 1575 1576 1576 1576 1577 1577 1578 1578 1578 1578 1579 1579 1579 1580 1580 1580 1580 1580 1580 1580 1581 1581 1581 1581 1581 1581 1581 1582 1582 1582 1582 1582 1582 1582 1582 1582 1582 1582 1582 1582 1582 1582 1582 1582 1582 1582 1582 1582 1582 1582 1582 1582 1582 1582 1582 1582 1581 1581 1581 1581 1581 1581 1580 1580 1580 1580 1580 1579 1579 1579 1578 1578 1578 1577 1577 1577 1577 1577 1576 1576 1576 1576 1576 1576 1575 1575 1575 1574 1574 1573 1573 1573 1573
1568 1569 1570 1571 1572 1572 1573 1573 1574 1574 1575 1575 1576 1576 1576 1577 1577 1578 1578 1578 1578 1579 1579 1579 1580 1580 1580 1580 1580 1580 1580 1581 1581 1581 1581 1581 1581 1581 1581 1582 1582 1582 1582 1582 1582 1582 1582 1582 1582 1582 1582 1582 1582 1582 1582 1582 1582 1582 1582 1582 1582 1582 1582 1581 1581 1581 1581 1581 1581 1581 1581 1581 1580 1580 1580 1580 1580 1579 1579 1579 1578 1578 1578 1578 1577 1577 1577 1576 1576 1576 1576 1576 1576 1575 1575 1575 1575 1574 1574 1573 1573 1573 1572
1568 1568 1569 1570 1571 1572 1572 1573 1573 1574 1574 1575 1575 1576 1576 1577 1577 1577 1578 1578 1578 1578 1579 1579 1579 1580 1580 1580 1580 1580 1580 1580 1581 1581 1581 1581 1581 1581 1581 1581 1581 1581 1582 1582 1582 1582 1582 1582 1582 1582 1582 1582 1582 1582 1582 1582 1581 1581 1581 1581 1581 1581 1581 1581 1581 1581 1581 1581 1581 1581 1581 1580 1580 1580 1580 1580 1580 1579 1579 1579 1578 1578 1578 1578 1577 1577 1577 1576 1576 1576 1576 1576 1575 1575 1575 1575 1575 1574 1574 1573 1573 1572 1572
1567 1568 1569 1570 1571 1571 1572 1573 1573 1573 1574 1574 1575 1576 1576 1576 1577 1577 1577 1578 1578 1578 1578 1579 1579 1579 1579 1580 1580 1580 1580 1580 1580 1580 1581 1581 1581 1581 1581 1581 1581 1581 1581 1581 1581 1581 1581 1582 1582 1582 1582 1582 1582 1582 1582 1581 1581 1581 1581 1581 1581 1581 1581 1581 1581 1581 1581 1581 1581 1580 1580 1580 1580 1580 1580 1580 1579 1579 1579 1579 1578 1578 1578 1578 1578 1577 1577 1577 1576 1576 1576 1575 1575 1575 1574 1574 1574 1574 1573 1573 1573 1572 1572
1567 1568 1569 1569 1570 1571 1571 1572 1573 1573 1573 1574 1575 1575 1576 1576 1576 1577 1577 1577 1578 1578 1578 1578 1578 1579 1579 1579 1579 1579 1580 1580 1580 1580 1580 1580 1581 1581 1581 1581 1581 1581 1581 1581 1581 1581 1581 1581 1581 1581 1581 1581 1581 1581 1581 1581 1581 1581 1581 1581 1581 1581 1581 1581 1581 1580 1580 1580 1580 1580 1580 1580 1580 1580 1579 1579 1579 1579 1579 1579 1579 1578 1578 1578 1578 1578 1577 1577 1576 1576 1576 1575 1575 1574 1574 1574 1574 1574 1573 1573 1572 1572 1572
1567 1568 1568 1569 1570 1570 1571 1572 1572 1573 1573 1574 1574 1575 1575 1576 1576 1576 1577 1577 1577 1577 1578 1578 1578 1578 1578 1579 1579 1579 1579 1579 1580 1580 1580 1580 1580 1580 1581 1581 1581 1581 1581 1581 1581 1581 1581 1581 1581 1581 1581 1581 1581 1581 1581 1581 1581 1581 1581 1580 1580 1580 1580 1580 1580 1580 1580 1580 1580 1580 1580 1580 1579 1579 1579 1579 1579 1579 1579 1579 1579 1578 1578 1578 1578 1578 1577 1577 1576 1576 1576 1575 1575 1574 1574 1574 1574 1574 1573 1573 1572 1572 1571
1567 1568 1568 1569 1569 1570 1571 1571 1572 1572 1573 1573 1574 1574 1575 1575 1575 1576 1576 1576 1577 1577 1577 1577 1578 1578 1578 1578 1578 1579 1579 1579 1579 1579 1580 1580 1580 1580 1580 1580 1581 1581 1581 1581 1581 1581 1581 1581 1581 1581 1581 1581 1581 1581 1581 1581 1581 1581 1580 1580 1580 1580 1580 1580 1580 1580 1580 1580 1579 1579 1579 1579 1579 1579 1579 1579 1579 1579 1578 1578 1578 1578 1578 1578 1578 1578 1577 1577 1576 1575 1575 1575 1575 1574 1574 1574 1574 1573 1573 1573 1572 1572 1571
1567 1567 1568 1568 1569 1570 1570 1571 1571 1572 1573 1573 1574 1574 1574 1575 1575 1575 1575 1576 1576 1576 1577 1577 1577 1577 1578 1578 1578 1578 1578 1579 1579 1579 1579 1580 1580 1580 1580 1580 1580 1581 1581 1581 1581 1581 1581 1581 1581 1580 1580 1580 1580 1580 1580 1580 1580 1580 1580 1580 1580 1580 1580 1580 1579 1579 1579 1579 1579 1579 1579 1579 1579 1579 1579 1578 1578 1578 1578 1578 1578 1578 1578 1578 1578 1577 1577 1577 1576 1576 1575 1575 1575 1574 1574 1574 1573 1573 1573 1572 1572 1572 1571
1566 1567 1568 1568 1569 1569 1570 1570 1571 1572 1572 1573 1573 1573 1574 1574 1574 1575 1575 1575 1575 1576 1576 1576 1577 1577 1577 1577 1578 1578 1578 1578 1579 1579 1579 1580 1580 1580 1580 1580 1580 1580 1580 1580 1580 1580 1580 1580 1580 1580 1580 1580 1580 1580 1580 1580 1580 1580 1580 1580 1580 1580 1579 1579 1579 1579 1579 1579 1579 1579 1579 1579 1578 1578 1578 1578 1578 1578 1578 1578 1578 1578 1578 1578 1577 1577 1577 1576 1576 1576 1575 1575 1574 1574 1574 1574 1573 1573 1573 1572 1572 1572 1571
1566 1566 1567 1568 1568 1569 1569 1570 1571 1571 1572 1572 1573 1573 1573 1573 1573 1574 1574 1574 1575 1575 1575 1576 1576 1576 1577 1577 1577 1578 1578 1578 1578 1579 1579 1579 1580 1580 1580 1580 1580 1580 1580 1580 1580 1580 1580 1580 1580 1580 1580 1580 1580 1580 1580 1580 1580 1580 1580 1580 1580 1579 1579 1579 1579 1579 1578 1578 1578 1578 1578 1578 1578 1578 1578 1578 1578 1578 1578 1578 1578 1578 1578 1577 1577 1577 1576 1576 1576 1575 1575 1574 1574 1574 1574 1573 1573 1573 1572 1572 1572 1571 1571
1565 1566 1566 1567 1568 1568 1569 1569 1570 1571 1571 1571 1572 1572 1572 1573 1573 1573 1573 1574 1574 1574 1575 1575 1576 1576 1576 1577 1577 1577 1578 1578 1578 1578 1579 1579 1579 1579 1580 1580 1580 1580 1580 1580 1580 1580 1580 1580 1580 1580 1580 1580 1580 1580 1580 1580 1580 1580 1580 1579 1579 1579 1579 1579 1579 1578 1578 1578 1578 1578 1578 1578 1578 1578 1578 1578 1578 1578 1578 1578 1578 1577 1577 1577 1577 1576 1576 1575 1575 1575 1574 1574 1574 1574 1573 1573 1573 1573 1572 1572 1572 1571 1571
1564 1565 1566 1566 1567 1568 1568 1569 1569 1570 1570 1571 1571 1571 1572 1572 1572 1573 1573 1573 1573 1574 1574 1575 1575 1575 1576 1576 1576 1577 1577 1578 1578 1578 1578 1579 1579 1579 1579 1579 1579 1579 1579 1579 1579 1579 1579 1579 1579 1579 1579 1579 1579 1579 1579 1579 1579 1579 1579 1579 1579 1579 1579 1579 1579 1578 1578 1578 1578 1578 1578 1578 1578 1577 1577 1577 1577 1577 1577 1577 1577 1577 1577 1577 1576 1576 1575 1575 1574 1574 1574 1574 1573 1573 1573 1573 1573 1572 1572 1571 1571 1571 1570
1564 1564 1565 1565 1566 1567 1568 1568 1568 1569 1569 1570 1570 1570 1571 1571 1571 1572 1572 1573 1573 1573 1573 1574 1574 1575 1575 1576 1576 1576 1577 1577 1577 1578 1578 1578 1578 1579 1579 1579 1579 1579 1579 1579 1579 1579 1579 1579 1579 1579 1579 1579 1579 1579 1579 1579 1579 1579 1579 1579 1579 1579 1579 1579 1578 1578 1578 1578 1578 1578 1578 1577 1577 1577 1577 1577 1577 1577 1577 1577 1577 1576 1576 1576 1576 1576 1575 1575 1574 1574 1573 1573 1573 1573 1573 1572 1572 1572 1571 1571 1570 1570 1570
1563 1563 1564 1565 1565 1566 1567 1567 1568 1568 1568 1568 1569 1569 1570 1570 1570 1571 1571 1572 1572 1572 1573 1573 1573 1574 1574 1575 1575 1576 1576 1576 1577 1577 1577 1578 1578 1578 1578 1578 1578 1578 1578 1579 1579 1579 1579 1579 1579 1579 1579 1579 1579 1579 1579 1579 1579 1579 1579 1579 1579 1579 1578 1578 1578 1578 1578 1578 1578 1578 1577 1577 1577 1577 1576 1576 1576 1576 1576 1576 1576 1576 1576 1576 1575 1575 1575 1574 1574 1573 1573 1573 1573 1572 1572 1572 1572 1571 1571 1570 1570 1570 1569
1562 1563 1563 1564 1565 1565 1566 1567 1567 1567 1567 1568 1568 1568 1569 1569 1569 1570 1570 1571 1571 1572 1572 1572 1573 1573 1574 1574 1574 1575 1575 1576 1576 1576 1577 1577 1577 1578 1578 1578 1578 1578 1578 1578 1578 1578 1578 1578 1579 1579 1579 1579 1579 1579 1579 1579 1579 1579 1579 1578 1578 1578 1578 1578 1578 1578 1578 1578 1577 1577 1577 1577 1576 1576 1576 1576 1576 1576 1576 1576 1575 1575 1575 1575 1575 1575 1574 1574 1573 1573 1573 1572 1572 1572 1572 1571 1571 1571 1570 1570 1570 1569 1569
1561 1562 1563 1563 1564 1565 1565 1566 1566 1566 1567 1567 1567 1567 1568 1568 1568 1569 1569 1570 1570 1571 1571 1572 1572 1572 1573 1573 1574 1574 1574 1575 1575 1576 1576 1576 1577 1577 1577 1577 1577 1578 1578 1578 1578 1578 1578 1578 1578 1578 1578 1579 1579 1579 1579 1579 1579 1578 1578 1578 1578 1578 1578 1578 1578 1577 1577 1577 1577 1577 1576 1576 1576 1576 1575 1575 1575 1575 1575 1575 1575 1575 1575 1574 1574 1574 1574 1573 1573 1573 1572 1572 1572 1572 1571 1571 1571 1571 1570 1570 1570 1569 1569
1561 1561 1562 1563 1563 1564 1565 1565 1565 1565 1566 1566 1566 1566 1567 1567 1568 1568 1568 1569 1569 1570 1570 1571 1571 1572 1572 1572 1573 1573 1574 1574 1574 1575 1575 1576 1576 1576 1576 1577 1577 1577 1577 1577 1578 1578 1578 1578 1578 1578 1578 1578 1578 1578 1578 1578 1578 1578 1578 1578 1578 1578 1577 1577 1577 1577 1577 1576 1576 1576 1576 1576 1575 1575 1575 1575 1575 1574 1574 1574 1574 1574 1574 1574 1574 1573 1573 1573 1573 1572 1572 1572 1571 1571 1571 1571 1571 1570 1570 1570 1569 1569 1569
1560 1561 1561 1562 1563 1563 1564 1564 1564 1564 1565 1565 1565 1565 1566 1566 1567 1567 1568 1568 1568 1569 1569 1570 1570 1571 1571 1571 1572 1572 1573 1573 1574 1574 1574 1575 1575 1576 1576 1576 1576 1576 1577 1577 1577 1577 1577 1578 1578 1578 1578 1578 1578 1578 1578 1578 1578 1578 1578 1578 1577 1577 1577 1577 1576 1576 1576 1576 1576 1576 1575 1575 1575 1575 1575 1574 1574 1574 1574 1574 1574 1573 1573 1573 1573 1573 1573 1572 1572 1572 1572 1571 1571 1571 1571 1570 1570 1570 1570 1569 1569 1569 1568
1559 1560 1560 1561 1562 1562 1563 1563 1563 1563 1563 1564 1564 1564 1565 1565 1565 1566 1566 1567 1567 1568 1568 1568 1569 1570 1570 1570 1571 1571 1572 1573 1573 1573 1574 1574 1574 1575 1575 1575 1575 1576 1576 1576 1576 1577 1577 1577 1577 1577 1577 1577 1578 1578 1577 1577 1577 1577 1577 1577 1577 1577 1576 1576 1576 1576 1575 1575 1575 1575 1575 1575 1574 1574 1574 1574 1574 1573 1573 1573 1573 1573 1573 1573 1573 1572 1572 1572 1572 1571 1571 1571 1571 1570 1570 1570 1570 1570 1569 1569 1569 1568 1568
1558 1558 1559 1559 1560 1561 1561 1562 1562 1562 1563 1563 1563 1563 1564 1564 1564 1565 1565 1566 1566 1567 1567 1568 1568 1568 1569 1569 1570 1571 1571 1572 1572 1572 1573 1573 1573 1574 1574 1574 1575 1575 1575 1576 1576 1576 1576 1576 1577 1577 1577 1577 1577 1577 1577 1577 1577 1577 1576 1576 1576 1576 1576 1575 1575 1575 1575 1575 1574 1574 1574 1574 1574 1574 1573 1573 1573 1573 1573 1573 1573 1573 1572 1572 1572 1572 1571 1571 1571 1571 1571 1570 1570 1570 1570 1570 1569 1569 1569 1569 1568 1568 1568
1557 1557 1558 1558 1559 1559 1560 1560 1561 1561 1561 1562 1562 1562 1563 1563 1563 1563 1564 1564 1565 1565 1566 1566 1567 1567 1568 1568 1569 1570 1570 1571 1571 1571 1572 1572 1573 1573 1573 1573 1574 1574 1574 1575 1575 1575 1576 1576 1576 1576 1576 1576 1576 1576 1576 1576 1576 1576 1576 1576 1576 1575 1575 1575 1575 1574 1574 1574 1574 1573 1573 1573 1573 1573 1573 1573 1573 1573 1573 1572 1572 1572 1572 1571 1571 1571 1571 1570 1570 1570 1570 1570 1570 1570 1569 1569 1569 1569 1568 1568 1568 1567 1567
1555 1556 1556 1557 1557 1558 1558 1559 1559 1559 1560 1560 1561 1561 1561 1562 1562 1563 1563 1563 1564 1564 1565 1565 1566 1566 1567 1567 1568 1568 1569 1569 1570 1570 1571 1571 1572 1572 1573 1573 1573 1573 1574 1574 1574 1575 1575 1575 1575 1575 1576 1576 1575 1575 1575 1575 1575 1575 1575 1575 1575 1575 1574 1574 1574 1574 1573 1573 1573 1573 1573 1573 1572 1572 1572 1572 1572 1572 1572 1572 1571 1571 1571 1571 1571 1570 1570 1570 1570 1569 1569 1569 1569 1569 1569 1568 1568 1568 1568 1568 1567 1567 1566
1554 1554 1555 1555 1556 1557 1557 1557 1558 1558 1558 1559 1559 1560 1560 1561 1561 1562 1562 1563 1563 1563 1564 1564 1565 1565 1566 1566 1567 1568 1568 1568 1569 1569 1570 1570 1571 1571 1572 1572 1572 1573 1573 1573 1573 1574 1574 1574 1575 1575 1575 1575 1575 1575 1575 1575 1574 1574 1574 1574 1574 1574 1574 1573 1573 1573 1573 1573 1573 1572 1572 1572 1572 1572 1572 1572 1571 1571 1571 1571 1571 1570 1570 1570 1570 1569 1569 1569 1569 1569 1569 1569 1568 1568 1568 1568 1568 1567 1567 1567 1566 1566 1565
1553 1553 1553 1554 1555 1555 1555 1556 1556 1556 1557 1557 1558 1558 1559 1560 1561 1561 1562 1562 1562 1563 1563 1563 1563 1564 1564 1565 1566 1566 1567 1568 1568 1568 1569 1569 1570 1570 1571 1571 1572 1572 1572 1573 1573 1573 1573 1573 1574 1574 1574 1574 1574 1574 1574 1574 1574 1574 1574 1573 1573 1573 1573 1573 1573 1573 1572 1572 1572 1572 1571 1571 1571 1571 1571 1571 1571 1571 1570 1570 1570 1570 1570 1569 1569 1569 1568 1568 1568 1568 1568 1568 1568 1568 1567 1567 1567 1567 1566 1566 1565 1565 1565
1551 1552 1552 1553 1553 1553 1554 1554 1554 1555 1555 1556 1556 1557 1558 1559 1559 1560 1560 1561 1561 1561 1561 1562 1562 1562 1563 1564 1564 1565 1566 1567 1567 1568 1568 1568 1569 1570 1570 1571 1571 1571 1571 1572 1572 1572 1573 1573 1573 1573 1573 1573 1573 1573 1573 1573 1573 1573 1573 1573 1573 1573 1573 1573 1572 1572 1572 1571 1571 1571 1571 1571 1570 1570 1570 1570 1570 1570 1570 1569 1569 1569 1569 1569 1568 1568 1568 1568 1568 1567 1567 1567 1567 1567 1567 1566 1566 1566 1565 1565 1565 1564 1564
1550 1550 1551 1551 1552 1552 1553 1553 1553 1553 1554 1554 1555 1556 1557 1557 1558 1558 1559 1559 1560 1560 1560 1560 1561 1561 1562 1562 1563 1564 1565 1565 1566 1566 1567 1567 1568 1568 1569 1570 1570 1570 1570 1571 1571 1571 1572 1572 1572 1572 1572 1572 1572 1572 1572 1572 1572 1572 1572 1572 1572 1572 1572 1572 1572 1571 1571 1570 1570 1570 1570 1570 1570 1569 1569 1569 1569 1569 1569 1568 1568 1568 1568 1568 1568 1567 1567 1567 1567 1567 1566 1566 1566 1566 1566 1565 1565 1565 1564 1564 1564 1563 1563
1548 1549 1549 1549 1550 1550 1551 1552 1552 1552 1553 1553 1553 1554 1555 1556 1556 1557 1557 1558 1558 1558 1559 1559 1559 1560 1560 1561 1562 1563 1563 1564 1564 1565 1566 1566 1567 1567 1568 1569 1569 1569 1569 1570 1570 1570 1570 1571 1571 1571 1571 1571 1571 1571 1571 1571 1572 1572 1572 1572 1571 1571 1571 1571 1571 1570 1570 1570 1569 1569 1569 1569 1569 1569 1568 1568 1568 1568 1568 1568 1568 1568 1567 1567 1567 1567 1566 1566 1566 1566 1566 1565 1565 1565 1565 1565 1564 1564 1564 1563 1563 1563 1562
1547 1547 1548 1548 1548 1549 1550 1550 1551 1551 1552 1552 1552 1553 1553 1554 1555 1555 1556 1556 1557 1557 1558 1558 1558 1559 1559 1560 1560 1561 1562 1563 1563 1564 1564 1565 1566 1566 1567 1568 1568 1568 1568 1568 1569 1569 1569 1569 1570 1570 1570 1570 1570 1570 1570 1570 1571 1571 1571 1571 1571 1570 1570 1570 1570 1569 1569 1569 1569 1568 1568 1568 1568 1568 1568 1568 1567 1567 1567 1567 1567 1566 1566 1566 1566 1566 1566 1565 1565 1565 1565 1565 1564 1564 1564 1564 1563 1563 1563 1563 1562 1562 1562
1545 1546 1546 1547 1547 1548 1548 1549 1549 1550 1550 1550 1551 1551 1552 1553 1553 1554 1554 1555 1555 1556 1556 1557 1557 1558 1558 1558 1559 1560 1561 1561 1562 1563 1563 1563 1564 1565 1566 1566 1566 1566 1567 1568 1568 1568 1568 1568 1568 1568 1568 1569 1569 1569 1569 1569 1570 1570 1570 1570 1570 1569 1569 1569 1569 1569 1568 1568 1568 1568 1567 1567 1567 1567 1567 1567 1566 1566 1566 1566 1566 1566 1565 1565 1565 1565 1565 1565 1564 1564 1564 1564 1564 1563 1563 1563 1563 1563 1562 1562 1562 1561 1561
1544 1544 1545 1545 1546 1546 1547 1547 1548 1548 1549 1549 1549 1550 1550 1551 1552 1552 1553 1553 1554 1554 1555 1555 1556 1556 1557 1557 1558 1558 1559 1560 1561 1561 1562 1562 1563 1564 1564 1564 1565 1565 1566 1566 1567 1567 1567 1567 1567 1567 1568 1568 1568 1568 1568 1568 1568 1568 1569 1569 1568 1568 1568 1568 1568 1568 1568 1568 1567 1567 1566 1566 1566 1566 1566 1566 1565 1566 1566 1565 1565 1565 1564 1564 1564 1564 1564 1564 1563 1563 1563 1563 1563 1563 1563 1563 1562 1562 1561 1561 1561 1560 1560
1542 1543 1543 1543 1544 1544 1545 1546 1546 1547 1547 1548 1548 1548 1549 1549 1550 1551 1551 1552 1553 1553 1554 1554 1554 1555 1555 1556 1557 1558 1558 1559 1560 1560 1561 1561 1562 1562 1563 1563 1564 1564 1565 1565 1565 1565 1566 1566 1566 1566 1567 1567 1567 1567 1567 1567 1567 1568 1568 1568 1568 1567 1567 1567 1567 1567 1567 1567 1566 1566 1565 1565 1565 1565 1565 1564 1564 1564 1565 1565 1564 1564 1564 1563 1563 1563 1563 1563 1563 1563 1563 1562 1562 1562 1562 1562 1561 1561 1561 1560 1560 1559 1559
1540 1541 1541 1542 1542 1543 1543 1544 1544 1545 1545 1546 1546 1547 1547 1548 1548 1549 1550 1550 1551 1551 1552 1553 1553 1553 1554 1554 1555 1556 1557 1558 1558 1559 1559 1560 1560 1561 1561 1562 1562 1563 1563 1563 1564 1564 1564 1565 1565 1565 1565 1565 1565 1566 1566 1566 1566 1566 1566 1566 1566 1566 1566 1566 1566 1566 1566 1565 1565 1565 1564 1564 1564 1564 1563 1563 1563 1563 1563 1563 1563 1563 1563 1563 1563 1562 1562 1562 1562 1562 1562 1562 1561 1561 1561 1561 1561 1560 1560 1559 1559 1559 1558
1538 1539 1539 1540 1540 1541 1541 1542 1542 1543 1543 1544 1544 1545 1546 1546 1547 1548 1548 1548 1549 1550 1550 1551 1551 1552 1553 1553 1554 1555 1556 1556 1557 1558 1558 1559 1559 1559 1560 1560 1561 1561 1562 1562 1563 1563 1563 1563 1563 1564 1564 1564 1564 1564 1564 1564 1564 1564 1565 1565 1565 1565 1564 1564 1564 1564 1564 1564 1564 1564 1563 1563 1563 1563 1562 1562 1562 1562 1562 1562 1563 1562 1562 1562 1561 1561 1561 1561 1561 1561 1561 1561 1560 1560 1560 1560 1560 1559 1559 1559 1558 1558 1557
1537 1537 1538 1538 1538 1539 1539 1540 1540 1541 1541 1542 1543 1543 1544 1544 1545 1546 1546 1547 1548 1548 1549 1549 1550 1550 1551 1552 1553 1553 1554 1554 1555 1556 1557 1558 1558 1558 1559 1559 1560 1560 1561 1561 1561 1562 1562 1562 1562 1562 1563 1563 1563 1562 1563 1563 1563 1563 1563 1563 1563 1563 1563 1563 1563 1563 1563 1563 1563 1563 1562 1562 1562 1561 1561 1561 1561 1561 1561 1561 1561 1561 1561 1560 1560 1560 1560 1560 1560 1560 1559 1559 1559 1559 1559 1559 1559 1559 1558 1558 1558 1557 1557
1535 1535 1536 1536 1537 1537 1537 1538 1538 1539 1539 1540 1541 1541 1542 1542 1543 1544 1545 1545 1546 1547 1547 1548 1548 1549 1550 1550 1551 1552 1552 1553 1554 1554 1555 1556 1556 1557 1558 1558 1558 1559 1559 1560 1560 1560 1560 1560 1560 1561 1561 1561 1562 1561 1561 1561 1561 1561 1562 1562 1562 1562 1562 1562 1562 1562 1562 1561 1561 1561 1561 1561 1560 1560 1560 1559 1559 1559 1559 1559 1559 1559 1559 1559 1559 1559 1559 1558 1558 1558 1558 1558 1558 1558 1558 1558 1558 1558 1558 1557 1557 1556 1556
1533 1534 1534 1534 1535 1535 1536 1536 1536 1537 1538 1538 1539 1539 1540 1541 1542 1543 1543 1544 1544 1545 1545 1546 1546 1547 1548 1549 1550 1550 1551 1552 1552 1553 1553 1554 1555 1555 1556 1557 1557 1558 1558 1558 1558 1559 1559 1559 1559 1559 1559 1560 1560 1560 1560 1559 1559 1559 1559 1560 1560 1560 1560 1560 1560 1560 1560 1560 1560 1560 1559 1559 1559 1559 1558 1558 1558 1558 1558 1558 1558 1558 1558 1558 1558 1558 1558 1557 1557 1557 1557 1557 1557 1557 1557 1557 1557 1557 1557 1556 1556 1555 1555